Location: ??????
(31.2056°N, 45.3906°E)
Time: 13:51:01
(UTC+00:00)

Cosmos 1758 Rocket - Pass Details

Date: 09 April 2020
Orbit: 603 x 635 km, 82.5° (Epoch: 05 June)

Event Time Altitude Azimuth Distance (km) Brightness Sun altitude
Rises 16:07:28 0° 358° (N) 2,862 7.2 -10.1°
Reaches altitude 10° 16:09:43 10° 3° (N) 1,952 6.3 -10.5°
Maximum altitude 16:13:58 58° 82° (E) 706 3.5 -11.4°
Drops below altitude 10° 16:18:11 10° 162° (SSE) 1,939 5.8 -12.3°
Enters shadow 16:20:23 - 166° (SSE) 2,825 6.6 -12.7°
